{"data":{"norad_id":24674,"intl_designator":"1996-070A","name":"INMARSAT 3-F3","alt_names":[],"object_type":"PAYLOAD","status":"ACTIVE","operator":null,"country":"IM","launch_date":"1996-12-18","launch_site_code":"AFETR","launch_vehicle":null,"mission":null,"orbit_class":"UNKNOWN","rcs_meters":28.1837,"size_class":null,"mass_kg":null,"dimensions":null,"purposes":["comms"],"wikipedia_slug":null,"has_3d_model":false,"image_url":null,"decayed_at":null,"tle_current":{"epoch":"2026-05-24T19:30:23.981184Z","epoch_age_seconds":101941,"freshness":"FRESH","line1":"1 24674U 96070A   26144.81277756  .00000026  00000+0  00000+0 0  9991","line2":"2 24674  10.2689  49.8752 0003825 357.7220 194.6919  0.99974458107675","mean_motion":0.99974458,"eccentricity":0.0003825,"inclination_deg":10.2689,"raan_deg":49.8752,"arg_perigee_deg":357.722,"mean_anomaly_deg":194.6919,"bstar":0,"rev_number":10767,"period_min":1440.3678987687,"perigee_km":35853.993048435,"apogee_km":35886.312990299,"semimajor_km":42248.290019367,"source":"CELESTRAK","updated_at":"2026-05-25T13:38:13.807349Z"}}}